Weather History for KSAT - October, 2010

Change the Weather History Date:

Monday, October 25, 2010

  Actual Average Record
Temperature  
Mean Temperature 80 °F 69 °F  
Max Temperature 91 °F 80 °F 91 °F (1991)
Min Temperature 68 °F 58 °F 36 °F (1945)
Degree Days  
Heating Degree Days 0 2  
Month to date heating degree days 0 16  
Since 1 July heating degree days 0 18  
Cooling Degree Days 15 5  
Month to date cooling degree days 164 191  
Year to date cooling degree days 3023 3025  
Growing Degree Days 30 (Base 50)    
Moisture  
Dew Point 66 °F    
Average Humidity 65    
Maximum Humidity 93    
Minimum Humidity 36    
Precipitation  
Precipitation 0.00 in 0.13 in 2.16 in (1975)
Month to date precipitation 0.17 3.43  
Year to date precipitation 36.50 27.40  
Snow  
Snow 0.00 in - - ()
Month to date snowfall 0.0  
Since 1 July snowfall 0.0  
Since 1 September snowfall 0.0  
Snow Depth 0.00 in    
Sea Level Pressure  
Sea Level Pressure 29.67 in    
Wind  
Wind Speed 12 mph (SSW)    
Max Wind Speed 21 mph    
Max Gust Speed 25 mph    
Visibility 7 miles    
Events      
T = Trace of Precipitation, MM = Missing Value Source: NWS Daily Summary

Daily Weather History Graph

Daily Weather History Graph

Search for Another Location

Airport or City:

Trip Planner

Search our weather history database for the weather conditions in past years. The results will help you decide how hot, cold, wet, or windy it might be!

Date:

Astronomy

Oct. 25, 2010 Rise Set
Actual Time 7:42 AM CDT 6:53 PM CDT
Civil Twilight 7:17 AM CDT 7:17 PM CDT
Nautical Twilight 6:49 AM CDT 7:45 PM CDT
Astronomical Twilight 6:22 AM CDT 8:13 PM CDT
Moon 8:39 PM CDT (10/25) 10:09 AM CDT (10/25)
Length of Visible Light 11h 59m
Length of Day
11h 11m
Waning Gibbous, 93% of the Moon is Illuminated
Oct 25
Waning Gibbous
Oct 30
Last Quarter
Nov 5
New
Nov 13
First Quarter
Nov 21
Full

Hourly Weather History & Observations

Time (CDT) Temp. Heat Index Dew Point Humidity Pressure Visibility Wind Dir Wind Speed Gust Speed Precip Events Conditions
12:53 AM 73.0 °F - 66.9 °F 81% 29.79 in 10.0 mi South 6.9 mph - N/A   Clear
1:53 AM 72.0 °F - 66.9 °F 84% 29.78 in 10.0 mi South 8.1 mph - N/A   Clear
2:53 AM 71.1 °F - 66.9 °F 87% 29.76 in 10.0 mi South 6.9 mph - N/A   Clear
3:53 AM 70.0 °F - 66.9 °F 90% 29.74 in 10.0 mi SSW 9.2 mph - N/A   Clear
4:53 AM 69.1 °F - 66.0 °F 90% 29.73 in 8.0 mi SSW 4.6 mph - N/A   Clear
5:53 AM 68.0 °F - 66.0 °F 93% 29.73 in 7.0 mi SW 4.6 mph - N/A   Scattered Clouds
6:00 AM 68.0 °F - 66.2 °F 94% 29.78 in 7.0 mi SSW 5.8 mph - N/A   Scattered Clouds
6:17 AM 68.0 °F - 66.2 °F 94% 29.78 in 6.0 mi SSW 5.8 mph - N/A   Mostly Cloudy
6:53 AM 68.0 °F - 66.0 °F 93% 29.73 in 6.0 mi South 4.6 mph - N/A   Overcast
7:53 AM 69.1 °F - 66.9 °F 93% 29.72 in 3.0 mi SSW 6.9 mph - N/A   Overcast
8:27 AM 69.8 °F - 66.2 °F 88% 29.77 in 2.0 mi SSW 9.2 mph - N/A   Overcast
8:53 AM 69.1 °F - 66.9 °F 93% 29.73 in 2.0 mi SSW 9.2 mph - N/A   Overcast
9:06 AM 69.8 °F - 66.2 °F 88% 29.78 in 1.0 mi SSW 10.4 mph - N/A   Overcast
9:29 AM 69.8 °F - 68.0 °F 94% 29.78 in 1.0 mi SSW 10.4 mph - N/A   Overcast
9:55 AM 69.8 °F - 68.0 °F 94% 29.78 in 1.5 mi SSW 9.2 mph - N/A   Overcast
10:12 AM 71.6 °F - 68.0 °F 88% 29.78 in 1.5 mi SSW 10.4 mph - N/A   Overcast
10:21 AM 71.6 °F - 68.0 °F 88% 29.78 in 4.0 mi SSW 12.7 mph - N/A   Overcast
10:34 AM 71.6 °F - 68.0 °F 88% 29.77 in 4.0 mi SSW 13.8 mph 20.7 mph N/A   Overcast
10:53 AM 72.0 °F - 66.9 °F 84% 29.73 in 5.0 mi SSW 15.0 mph - N/A   Overcast
11:05 AM 73.4 °F - 68.0 °F 83% 29.77 in 5.0 mi SSW 11.5 mph - N/A   Haze
11:53 AM 75.0 °F - 68.0 °F 79% 29.69 in 6.0 mi South 12.7 mph - N/A   Haze
12:18 PM 78.8 °F - 68.0 °F 69% 29.72 in 6.0 mi SSW 12.7 mph - N/A   Haze
12:29 PM 78.8 °F - 68.0 °F 69% 29.71 in 6.0 mi SSW 13.8 mph - N/A   Haze
12:53 PM 80.1 °F 82.7 °F 68.0 °F 67% 29.65 in 7.0 mi SSW 15.0 mph 20.7 mph N/A   Scattered Clouds
1:53 PM 84.0 °F 87.0 °F 68.0 °F 58% 29.60 in 8.0 mi South 16.1 mph 23.0 mph N/A   Scattered Clouds
2:53 PM 88.0 °F 90.3 °F 66.0 °F 48% 29.55 in 9.0 mi South 19.6 mph 25.3 mph N/A   Partly Cloudy
3:53 PM 90.0 °F 91.3 °F 64.0 °F 42% 29.51 in 10.0 mi South 11.5 mph - N/A   Mostly Cloudy
4:53 PM 91.0 °F 90.9 °F 61.0 °F 36% 29.48 in 10.0 mi South 15.0 mph 24.2 mph N/A   Scattered Clouds
5:53 PM 88.0 °F 88.7 °F 63.0 °F 43% 29.48 in 10.0 mi South 13.8 mph - N/A   Overcast
6:53 PM 86.0 °F 87.3 °F 64.0 °F 48% 29.46 in 10.0 mi South 12.7 mph - N/A   Overcast
7:53 PM 84.0 °F 85.4 °F 64.0 °F 51% 29.48 in 10.0 mi SSE 16.1 mph - N/A   Overcast
8:53 PM 82.0 °F 83.4 °F 64.0 °F 54% 29.49 in 10.0 mi South 12.7 mph - N/A   Overcast
9:53 PM 81.0 °F 82.2 °F 63.0 °F 54% 29.50 in 10.0 mi South 15.0 mph 21.9 mph N/A   Overcast
10:53 PM 80.1 °F 81.7 °F 64.0 °F 58% 29.52 in 10.0 mi South 15.0 mph - N/A   Mostly Cloudy
11:53 PM 78.1 °F - 66.0 °F 66% 29.52 in 10.0 mi South 13.8 mph - N/A   Mostly Cloudy